FIN7EK LFMN-EFHK

Flight info

Callsign FIN7EK
Flight time N/A
Altitude 36000
Route BASIP DCT ANAKI DCT ABESI/N0437F350 DCT GAMSA/N0446F370 DCT KEMES DCT BODLA L132 DEMUR N746 GORPI DCT ALAMI DCT OKEVU DCT EVADI Y370 DIVAM
Aircraft A321/M-SDE3FGHIRWY/LB1

Departure

Time 2026-05-08 08:23
Airport Nice-Côte d'Azur Airport (LFMN)

Arrival

Time N/A
Airport Helsinki Vantaa Airport (EFHK)
Time Latitude Longitude Altitude Speed Heading
2026-05-08 08:04 43.66172 7.20683 27 ft 0 kts 259°
2026-05-08 08:10 43.66173 7.20695 26 ft 2 kts 259°
2026-05-08 08:11 43.66176 7.20715 26 ft 2 kts 259°
2026-05-08 08:11 43.66179 7.20736 26 ft 2 kts 259°
2026-05-08 08:11 43.66181 7.20749 26 ft 2 kts 255°
2026-05-08 08:11 43.66189 7.20767 26 ft 2 kts 216°
2026-05-08 08:12 43.66202 7.20774 26 ft 2 kts 183°
2026-05-08 08:12 43.66211 7.20774 26 ft 1 kts 169°
2026-05-08 08:12 43.66213 7.20773 26 ft 0 kts 169°
2026-05-08 08:14 43.66209 7.20774 26 ft 1 kts 169°
2026-05-08 08:15 43.66172 7.20783 26 ft 7 kts 170°
2026-05-08 08:15 43.66117 7.20796 26 ft 8 kts 170°
2026-05-08 08:15 43.66051 7.20811 26 ft 10 kts 170°
2026-05-08 08:15 43.65975 7.20825 26 ft 11 kts 178°
2026-05-08 08:16 43.65892 7.20801 26 ft 12 kts 206°
2026-05-08 08:16 43.65822 7.20721 26 ft 13 kts 224°
2026-05-08 08:16 43.65755 7.20626 26 ft 14 kts 226°
2026-05-08 08:16 43.65683 7.20524 26 ft 15 kts 224°
2026-05-08 08:17 43.65607 7.20421 26 ft 15 kts 224°
2026-05-08 08:17 43.65527 7.20314 26 ft 16 kts 225°
2026-05-08 08:17 43.65446 7.20204 26 ft 16 kts 215°
2026-05-08 08:17 43.65359 7.20194 26 ft 12 kts 152°
2026-05-08 08:18 43.65294 7.20273 26 ft 10 kts 135°
2026-05-08 08:18 43.65281 7.20292 26 ft 0 kts 134°
2026-05-08 08:19 43.65190 7.20418 26 ft 29 kts 135°
2026-05-08 08:19 43.65034 7.20424 26 ft 24 kts 223°
2026-05-08 08:20 43.64916 7.20257 26 ft 24 kts 226°
2026-05-08 08:20 43.64814 7.20134 26 ft 14 kts 191°
2026-05-08 08:20 43.64761 7.20159 26 ft 0 kts 134°
2026-05-08 08:21 43.64749 7.20175 26 ft 9 kts 134°
2026-05-08 08:22 43.64703 7.20276 27 ft 13 kts 74°
2026-05-08 08:22 43.64721 7.20312 27 ft 0 kts 43°
2026-05-08 08:22 43.64722 7.20312 27 ft 0 kts 43°
2026-05-08 08:22 43.64801 7.20426 27 ft 51 kts 44°
2026-05-08 08:23 43.65233 7.21011 27 ft 121 kts 44°
2026-05-08 08:23 43.65966 7.22031 59 ft 172 kts 43°
2026-05-08 08:23 43.66816 7.23236 638 ft 175 kts 46°
2026-05-08 08:23 43.67319 7.24685 1379 ft 168 kts 91°
2026-05-08 08:24 43.66853 7.26075 1938 ft 170 kts 135°
2026-05-08 08:24 43.65918 7.27177 2292 ft 184 kts 135°
2026-05-08 08:24 43.64963 7.28492 2671 ft 200 kts 133°
2026-05-08 08:24 43.63962 7.29938 3059 ft 216 kts 131°
2026-05-08 08:25 43.63176 7.31715 3482 ft 228 kts 103°
2026-05-08 08:25 43.63191 7.33929 4038 ft 236 kts 72°
2026-05-08 08:25 43.63782 7.35991 4856 ft 234 kts 65°
2026-05-08 08:25 43.64452 7.38050 5618 ft 236 kts 66°
2026-05-08 08:26 43.65086 7.40135 6360 ft 238 kts 67°
2026-05-08 08:26 43.65686 7.42251 7061 ft 240 kts 68°
2026-05-08 08:26 43.66273 7.44416 7761 ft 243 kts 69°
2026-05-08 08:26 43.66853 7.46601 8454 ft 246 kts 69°
2026-05-08 08:27 43.67439 7.48829 9110 ft 248 kts 70°
2026-05-08 08:27 43.68038 7.51086 9573 ft 259 kts 69°
2026-05-08 08:27 43.68681 7.53496 9908 ft 276 kts 70°
2026-05-08 08:27 43.69358 7.56038 10370 ft 289 kts 70°
2026-05-08 08:28 43.70071 7.58727 10695 ft 305 kts 70°
2026-05-08 08:28 43.70806 7.61500 11105 ft 316 kts 70°
2026-05-08 08:28 43.71571 7.64384 11724 ft 321 kts 70°
2026-05-08 08:28 43.72344 7.67304 12345 ft 325 kts 70°
2026-05-08 08:29 43.73215 7.70199 12926 ft 329 kts 63°
2026-05-08 08:29 43.74419 7.72884 13503 ft 333 kts 54°
2026-05-08 08:29 43.75906 7.75360 14088 ft 337 kts 49°
2026-05-08 08:29 43.77482 7.77802 14668 ft 341 kts 49°
2026-05-08 08:30 43.79080 7.80264 15258 ft 345 kts 49°
2026-05-08 08:30 43.80666 7.82726 15828 ft 349 kts 49°
2026-05-08 08:30 43.83902 7.87794 16966 ft 355 kts 49°
2026-05-08 08:31 43.85551 7.90388 17506 ft 359 kts 49°
2026-05-08 08:31 43.87196 7.92979 18038 ft 362 kts 50°
2026-05-08 08:31 43.88784 7.95706 18576 ft 365 kts 54°
2026-05-08 08:31 43.90238 7.98664 19102 ft 368 kts 59°
2026-05-08 08:32 43.91538 8.01740 19616 ft 370 kts 61°
2026-05-08 08:32 43.92809 8.04858 20096 ft 374 kts 61°
2026-05-08 08:32 43.94080 8.07996 20576 ft 377 kts 61°
2026-05-08 08:32 43.95356 8.11142 21051 ft 380 kts 61°
2026-05-08 08:33 43.96664 8.14364 21509 ft 383 kts 61°
2026-05-08 08:33 43.97962 8.17562 21939 ft 386 kts 61°
2026-05-08 08:33 43.99282 8.20812 22345 ft 390 kts 61°
2026-05-08 08:33 44.00628 8.24127 22767 ft 393 kts 60°
2026-05-08 08:34 44.01975 8.27448 23178 ft 396 kts 61°
2026-05-08 08:34 44.03326 8.30780 23592 ft 399 kts 61°
2026-05-08 08:34 44.04689 8.34144 24007 ft 402 kts 61°
2026-05-08 08:34 44.06054 8.37522 24390 ft 405 kts 61°
2026-05-08 08:35 44.07436 8.40945 24774 ft 409 kts 61°
2026-05-08 08:35 44.08825 8.44391 25167 ft 412 kts 61°
2026-05-08 08:35 44.10248 8.47927 25548 ft 415 kts 61°
2026-05-08 08:35 44.11665 8.51450 25920 ft 417 kts 61°
2026-05-08 08:36 44.13076 8.54965 26256 ft 421 kts 61°
2026-05-08 08:36 44.14507 8.58532 26595 ft 424 kts 62°
2026-05-08 08:36 44.15952 8.62142 26929 ft 427 kts 62°
2026-05-08 08:36 44.17289 8.65482 27230 ft 430 kts 62°
2026-05-08 08:37 44.18853 8.69051 27532 ft 434 kts 52°
2026-05-08 08:37 44.21119 8.71836 27765 ft 437 kts 30°
2026-05-08 08:37 44.23941 8.73339 28065 ft 435 kts
2026-05-08 08:37 44.26955 8.73847 28398 ft 435 kts
2026-05-08 08:38 44.29972 8.74248 28681 ft 438 kts
2026-05-08 08:38 44.33025 8.74665 28953 ft 441 kts
2026-05-08 08:38 44.36093 8.75106 29216 ft 444 kts
2026-05-08 08:38 44.39166 8.75564 29524 ft 446 kts
2026-05-08 08:39 44.42248 8.76038 29800 ft 448 kts
2026-05-08 08:39 44.45347 8.76521 30062 ft 451 kts
2026-05-08 08:39 44.48486 8.77012 30304 ft 454 kts
2026-05-08 08:39 44.51609 8.77503 30561 ft 456 kts
2026-05-08 08:40 44.54779 8.78003 30832 ft 458 kts
2026-05-08 08:40 44.57951 8.78505 31069 ft 460 kts
2026-05-08 08:40 44.61120 8.79006 31309 ft 462 kts
2026-05-08 08:40 44.64334 8.79519 31540 ft 464 kts
2026-05-08 08:41 44.67544 8.80029 31765 ft 467 kts
2026-05-08 08:41 44.70755 8.80541 32000 ft 468 kts
2026-05-08 08:41 44.73999 8.81057 32292 ft 469 kts
2026-05-08 08:41 44.77261 8.81578 32635 ft 468 kts
2026-05-08 08:42 44.80489 8.82093 32980 ft 467 kts
2026-05-08 08:42 44.83692 8.82606 33310 ft 466 kts
2026-05-08 08:42 44.86898 8.83121 33636 ft 465 kts
2026-05-08 08:42 44.90128 8.83639 33979 ft 463 kts
2026-05-08 08:43 44.93292 8.84148 34288 ft 463 kts
2026-05-08 08:43 44.96509 8.84666 34561 ft 463 kts
2026-05-08 08:43 44.99678 8.85174 34802 ft 463 kts
2026-05-08 08:43 45.02914 8.85693 34986 ft 463 kts
2026-05-08 08:44 45.06098 8.86207 35149 ft 464 kts
2026-05-08 08:44 45.09323 8.86728 35287 ft 464 kts
2026-05-08 08:44 45.12519 8.87244 35400 ft 465 kts
2026-05-08 08:44 45.15743 8.87765 35508 ft 466 kts
2026-05-08 08:45 45.22237 8.88816 35699 ft 467 kts
2026-05-08 08:45 45.25529 8.89351 35822 ft 467 kts
2026-05-08 08:45 45.28772 8.89877 35942 ft 467 kts
2026-05-08 08:46 45.35207 8.90923 36031 ft 468 kts
2026-05-08 08:46 45.41494 8.91948 36043 ft 467 kts
2026-05-08 08:47 45.47968 8.93010 36059 ft 467 kts
2026-05-08 08:47 45.54482 8.94075 36057 ft 467 kts
2026-05-08 08:48 45.60976 8.95141 36064 ft 467 kts
2026-05-08 08:48 45.67440 8.96205 36062 ft 466 kts
2026-05-08 08:49 45.73902 8.97269 36063 ft 466 kts
2026-05-08 08:49 45.80315 8.98330 36069 ft 467 kts
2026-05-08 08:50 45.86782 8.99403 36068 ft 466 kts
2026-05-08 08:50 45.93261 9.00480 36070 ft 467 kts
2026-05-08 08:51 45.99664 9.01549 36068 ft 466 kts
2026-05-08 08:51 46.06123 9.02629 35919 ft 467 kts
2026-05-08 08:52 46.09344 9.03167 35771 ft 466 kts
2026-05-08 08:52 46.12365 9.03716 35633 ft 468 kts
2026-05-08 08:52 46.15580 9.04540 35490 ft 471 kts
2026-05-08 08:52 46.18775 9.05653 35326 ft 473 kts 12°
2026-05-08 08:53 46.21924 9.07030 35177 ft 475 kts 14°
2026-05-08 08:53 46.25082 9.08531 35092 ft 476 kts 15°
2026-05-08 08:53 46.31348 9.11570 35067 ft 477 kts 15°
2026-05-08 08:54 46.37610 9.14595 35055 ft 477 kts 14°
2026-05-08 08:54 46.43921 9.17637 35063 ft 477 kts 15°
2026-05-08 08:55 46.50193 9.20660 35060 ft 476 kts 15°
2026-05-08 08:55 46.56476 9.23694 35053 ft 476 kts 15°
2026-05-08 08:56 46.60938 9.25855 35042 ft 476 kts 14°
2026-05-08 08:56 46.67259 9.28920 35056 ft 477 kts 15°
2026-05-08 08:57 46.73563 9.31987 35056 ft 477 kts 15°
2026-05-08 08:57 46.79837 9.35043 35070 ft 477 kts 14°
2026-05-08 08:58 46.86150 9.38127 35051 ft 477 kts 15°
2026-05-08 08:58 46.92462 9.41220 35066 ft 477 kts 15°
2026-05-08 08:59 46.98780 9.44322 35108 ft 478 kts 15°
2026-05-08 08:59 47.05072 9.47421 35090 ft 477 kts 14°
2026-05-08 09:00 47.10292 9.49995 35076 ft 477 kts 15°
2026-05-08 09:00 47.15686 9.52664 35043 ft 476 kts 15°
2026-05-08 09:01 47.21950 9.55768 35061 ft 476 kts 15°
2026-05-08 09:01 47.28203 9.58878 35069 ft 475 kts 15°
2026-05-08 09:02 47.34421 9.61980 35040 ft 474 kts 15°
2026-05-08 09:02 47.40358 9.65036 35037 ft 477 kts 19°
2026-05-08 09:03 47.46094 9.68783 35230 ft 481 kts 23°
2026-05-08 09:03 47.49112 9.70910 35446 ft 480 kts 24°
2026-05-08 09:03 47.52103 9.73032 35645 ft 478 kts 23°
2026-05-08 09:04 47.55141 9.75189 35825 ft 478 kts 24°
2026-05-08 09:04 47.58118 9.77300 36000 ft 476 kts 23°
2026-05-08 09:04 47.61094 9.79409 36182 ft 475 kts 23°
2026-05-08 09:04 47.64084 9.81526 36356 ft 474 kts 23°
2026-05-08 09:05 47.67041 9.83619 36502 ft 474 kts 23°
2026-05-08 09:05 47.70010 9.85724 36670 ft 473 kts 23°
2026-05-08 09:05 47.72983 9.87834 36831 ft 472 kts 23°
2026-05-08 09:05 47.75924 9.89925 36966 ft 471 kts 23°
2026-05-08 09:06 47.81857 9.94149 37057 ft 471 kts 24°
2026-05-08 09:06 47.87738 9.98348 37066 ft 471 kts 23°
2026-05-08 09:07 47.93639 10.02570 37068 ft 470 kts 23°
2026-05-08 09:07 47.97020 10.04996 37063 ft 469 kts 23°
2026-05-08 09:08 48.02920 10.09234 36804 ft 468 kts 23°
2026-05-08 09:08 48.05846 10.11338 36945 ft 469 kts 23°
2026-05-08 09:08 48.08780 10.13451 37005 ft 469 kts 23°
2026-05-08 09:09 48.13281 10.16701 37044 ft 469 kts 23°
2026-05-08 09:09 48.19176 10.20966 37058 ft 469 kts 24°
2026-05-08 09:10 48.25044 10.25224 37058 ft 469 kts 24°
2026-05-08 09:10 48.30926 10.29501 37058 ft 469 kts 24°
2026-05-08 09:11 48.36763 10.33757 37057 ft 468 kts 24°
2026-05-08 09:11 48.42623 10.38040 37057 ft 468 kts 24°
2026-05-08 09:12 48.48499 10.42347 37063 ft 467 kts 24°
2026-05-08 09:12 48.54311 10.46617 37070 ft 467 kts 24°
2026-05-08 09:13 48.60142 10.50914 37072 ft 467 kts 24°
2026-05-08 09:13 48.65977 10.55221 37071 ft 466 kts 24°
2026-05-08 09:14 48.71804 10.59537 37072 ft 466 kts 24°
2026-05-08 09:14 48.77602 10.63842 37073 ft 466 kts 24°
2026-05-08 09:15 48.83329 10.68104 37075 ft 466 kts 25°
2026-05-08 09:15 48.89151 10.72451 37076 ft 466 kts 25°
2026-05-08 09:16 48.94938 10.76783 37083 ft 465 kts 24°
2026-05-08 09:16 49.00740 10.81133 37083 ft 465 kts 25°
2026-05-08 09:17 49.06522 10.85482 37086 ft 464 kts 25°
2026-05-08 09:17 49.11553 10.89275 37090 ft 464 kts 25°
2026-05-08 09:18 49.17386 10.93684 37094 ft 464 kts 25°
2026-05-08 09:18 49.23201 10.98092 37098 ft 464 kts 24°
2026-05-08 09:19 49.28956 11.02467 37101 ft 464 kts 24°
2026-05-08 09:19 49.34748 11.06881 37103 ft 464 kts 24°
2026-05-08 09:20 49.40503 11.11279 37103 ft 464 kts 24°
2026-05-08 09:20 49.46247 11.15680 37105 ft 464 kts 24°
2026-05-08 09:21 49.52024 11.20119 37110 ft 464 kts 24°
2026-05-08 09:23 49.72109 11.35784 37096 ft 463 kts 24°
2026-05-08 09:23 49.77829 11.40285 37095 ft 462 kts 24°
2026-05-08 09:24 49.83527 11.44782 37096 ft 462 kts 24°
2026-05-08 09:24 49.89283 11.49334 37097 ft 469 kts 24°
2026-05-08 09:25 49.95120 11.53964 37103 ft 475 kts 24°
2026-05-08 09:25 50.00997 11.58641 37103 ft 476 kts 24°
2026-05-08 09:26 50.06892 11.63343 37101 ft 477 kts 24°
2026-05-08 09:26 50.12693 11.67984 37096 ft 477 kts 25°
2026-05-08 09:27 50.18683 11.72789 37106 ft 477 kts 25°
2026-05-08 09:27 50.24550 11.77510 37099 ft 476 kts 25°
2026-05-08 09:28 50.30425 11.82250 37104 ft 476 kts 25°
2026-05-08 09:28 50.36303 11.87005 37105 ft 476 kts 25°
2026-05-08 09:29 50.42142 11.91742 37114 ft 476 kts 25°
2026-05-08 09:29 50.48016 11.96522 37110 ft 476 kts 25°
2026-05-08 09:30 50.53904 12.01324 37106 ft 476 kts 25°
2026-05-08 09:30 50.59776 12.06129 37108 ft 476 kts 25°
2026-05-08 09:31 50.65644 12.10945 37111 ft 476 kts 25°
2026-05-08 09:31 50.71358 12.15645 37119 ft 476 kts 25°
2026-05-08 09:32 50.77237 12.20495 37117 ft 476 kts 25°
2026-05-08 09:32 50.83107 12.25352 37120 ft 476 kts 25°
2026-05-08 09:33 50.88914 12.30171 37129 ft 475 kts 25°
2026-05-08 09:33 50.94761 12.35036 37253 ft 475 kts 25°
2026-05-08 09:34 51.00635 12.39942 37172 ft 473 kts 25°
2026-05-08 09:34 51.06431 12.44793 37154 ft 473 kts 25°
2026-05-08 09:35 51.12013 12.49476 37151 ft 473 kts 25°
2026-05-08 09:35 51.17846 12.54384 37149 ft 473 kts 25°
2026-05-08 09:36 51.23682 12.59311 37154 ft 473 kts 25°
2026-05-08 09:36 51.29464 12.64207 37155 ft 472 kts 25°
2026-05-08 09:37 51.35295 12.69156 37158 ft 472 kts 26°
2026-05-08 09:37 51.41045 12.74053 37156 ft 472 kts 26°
2026-05-08 09:38 51.46829 12.78990 37162 ft 472 kts 26°
2026-05-08 09:38 51.52621 12.83949 37167 ft 472 kts 26°
2026-05-08 09:39 51.58406 12.88920 37170 ft 472 kts 26°
2026-05-08 09:39 51.64145 12.93864 37175 ft 471 kts 26°
2026-05-08 09:40 51.69929 12.98859 37179 ft 471 kts 26°
2026-05-08 09:40 51.75676 13.03839 37179 ft 470 kts 26°
2026-05-08 09:41 51.81422 13.08831 37181 ft 470 kts 26°
2026-05-08 09:41 51.87180 13.13850 37181 ft 470 kts 26°
2026-05-08 09:42 51.92900 13.18846 37182 ft 471 kts 26°
2026-05-08 09:42 51.98638 13.23875 37183 ft 471 kts 26°
2026-05-08 09:43 52.04382 13.28930 37180 ft 470 kts 26°
2026-05-08 09:43 52.10007 13.33890 37179 ft 469 kts 26°
2026-05-08 09:44 52.15840 13.39047 37180 ft 469 kts 26°
2026-05-08 09:44 52.21601 13.44158 37178 ft 469 kts 26°
2026-05-08 09:45 52.27381 13.49301 37181 ft 469 kts 26°
2026-05-08 09:45 52.33114 13.54417 37182 ft 470 kts 26°
2026-05-08 09:46 52.38849 13.59548 37182 ft 470 kts 26°
2026-05-08 09:46 52.44554 13.64670 37184 ft 470 kts 26°
2026-05-08 09:47 52.50307 13.69848 37180 ft 470 kts 27°
2026-05-08 09:47 52.56021 13.75008 37181 ft 469 kts 27°
2026-05-08 09:48 52.61685 13.80137 37179 ft 469 kts 27°
2026-05-08 09:48 52.67393 13.85322 37174 ft 469 kts 27°
2026-05-08 09:49 52.73092 13.90515 37170 ft 469 kts 27°
2026-05-08 09:49 52.78777 13.95711 37171 ft 469 kts 27°
2026-05-08 09:50 52.84484 14.00945 37170 ft 470 kts 27°
2026-05-08 09:50 52.90174 14.06177 37161 ft 470 kts 27°
2026-05-08 09:51 52.95851 14.11413 37164 ft 469 kts 27°
2026-05-08 09:51 53.01576 14.16710 37171 ft 469 kts 27°
2026-05-08 09:52 53.07231 14.21958 37175 ft 469 kts 28°
2026-05-08 09:52 53.12916 14.27253 37176 ft 469 kts 28°
2026-05-08 09:53 53.18599 14.32565 37173 ft 469 kts 28°
2026-05-08 09:53 53.24274 14.37885 37179 ft 469 kts 28°
2026-05-08 09:54 53.30071 14.42816 37188 ft 471 kts 23°
2026-05-08 09:54 53.36069 14.47219 37184 ft 474 kts 22°
2026-05-08 09:55 53.42111 14.51609 37188 ft 474 kts 22°
2026-05-08 09:55 53.48095 14.55990 37189 ft 474 kts 22°
2026-05-08 09:56 53.54151 14.60448 37189 ft 474 kts 22°
2026-05-08 09:56 53.60143 14.64876 37194 ft 474 kts 22°
2026-05-08 09:57 53.69199 14.71598 37199 ft 474 kts 23°
2026-05-08 09:57 53.75222 14.76085 37197 ft 474 kts 23°
2026-05-08 09:58 53.81210 14.80560 37202 ft 467 kts 23°
2026-05-08 09:58 53.84127 14.82747 37196 ft 456 kts 23°
2026-05-08 09:58 53.87041 14.84935 37199 ft 454 kts 23°
2026-05-08 09:59 53.92781 14.89250 37204 ft 453 kts 23°
2026-05-08 09:59 53.98553 14.93609 37206 ft 453 kts 23°
2026-05-08 10:00 54.04323 14.97981 37211 ft 452 kts 23°
2026-05-08 10:00 54.10032 15.02306 37215 ft 452 kts 23°
2026-05-08 10:01 54.15516 15.06443 37209 ft 452 kts 23°
2026-05-08 10:01 54.21259 15.10791 37220 ft 452 kts 23°
2026-05-08 10:02 54.26997 15.15155 37210 ft 452 kts 23°
2026-05-08 10:02 54.32711 15.19519 37212 ft 452 kts 23°
2026-05-08 10:03 54.38418 15.23889 37215 ft 453 kts 23°
2026-05-08 10:03 54.44173 15.28313 37218 ft 452 kts 24°
2026-05-08 10:04 54.49854 15.32707 37217 ft 452 kts 24°
2026-05-08 10:04 54.55595 15.37158 37220 ft 452 kts 24°
2026-05-08 10:05 54.61315 15.41612 37223 ft 452 kts 24°
2026-05-08 10:05 54.66993 15.46049 37228 ft 452 kts 24°
2026-05-08 10:06 54.72708 15.50528 37225 ft 452 kts 24°
2026-05-08 10:06 54.78407 15.55011 37229 ft 452 kts 24°
2026-05-08 10:07 54.84137 15.59533 37234 ft 453 kts 24°
2026-05-08 10:07 54.89835 15.64104 37237 ft 453 kts 26°
2026-05-08 10:08 54.95289 15.69467 37241 ft 453 kts 32°
2026-05-08 10:08 55.00605 15.75382 37249 ft 453 kts 33°
2026-05-08 10:09 55.05866 15.81297 37245 ft 453 kts 33°
2026-05-08 10:09 55.11157 15.87252 37253 ft 453 kts 33°
2026-05-08 10:10 55.16435 15.93202 37255 ft 453 kts 33°
2026-05-08 10:10 55.21738 15.99197 37261 ft 453 kts 33°
2026-05-08 10:11 55.27000 16.05164 37268 ft 453 kts 33°
2026-05-08 10:11 55.32284 16.11171 37269 ft 453 kts 33°
2026-05-08 10:12 55.37545 16.17174 37268 ft 453 kts 33°
2026-05-08 10:12 55.42815 16.23207 37266 ft 453 kts 33°
2026-05-08 10:13 55.48049 16.29217 37263 ft 453 kts 33°
2026-05-08 10:13 55.53311 16.35280 37263 ft 453 kts 33°
2026-05-08 10:14 55.58546 16.41330 37258 ft 453 kts 33°
2026-05-08 10:14 55.63829 16.47457 37261 ft 453 kts 33°
2026-05-08 10:15 55.69044 16.53525 37268 ft 452 kts 33°
2026-05-08 10:15 55.74317 16.59679 37263 ft 453 kts 33°